Baltimore Martin, MD

4:07 AM EDT on May 25, 2018 (GMT -0400)
Martin State

Weather History for KMTN - August, 2013

Change the Weather History Date:

Saturday, August 17, 2013

  Actual Average Record
Temperature  
Mean Temperature 70 °F -  
Max Temperature 80 °F 82 °F 98 °F (2016)
Min Temperature 59 °F 66 °F 59 °F (2013)
Cooling Degree Days 4    
Growing Degree Days 20 (Base 50)    
Moisture  
Dew Point 60 °F    
Average Humidity 78    
Maximum Humidity 100    
Minimum Humidity 45    
Precipitation  
Precipitation 0.00 in - - ()
Sea Level Pressure  
Sea Level Pressure 30.25 in    
Wind  
Wind Speed 3 mph (ENE)    
Max Wind Speed 9 mph    
Max Gust Speed -    
Visibility 10 miles    
Events      
Averages and records for this station are not official NWS values.
T = Trace of Precipitation, MM = Missing Value Source: NWS Daily Summary

Daily Weather History Graph

Daily Weather History Graph

Search for Another Location

Airport or City:

Astronomy

Aug. 17, 2013 Rise Set
Actual Time 6:20 AM EDT 7:58 PM EDT
Civil Twilight 5:51 AM EDT 8:26 PM EDT
Nautical Twilight 5:17 AM EDT 9:00 PM EDT
Astronomical Twilight 4:40 AM EDT 9:37 PM EDT
Moon 5:10 PM EDT (8/17) 2:21 AM EDT (8/17)
Length of Visible Light 14h 34m
Length of Day
13h 37m
Waxing Gibbous, 84% of the Moon is Illuminated
Aug 17
Waxing Gibbous
Aug 20
Full
Aug 28
Last Quarter
Sep 5
New
Sep 12
First Quarter

Hourly Weather History & Observations

Time (EDT) Temp. Heat Index Dew Point Humidity Pressure Visibility Wind Dir Wind Speed Gust Speed Precip Events Conditions
12:00 AM 69.8 °F - 60.8 °F 73% 30.22 in 10.0 mi SE 4.6 mph - N/A   Clear
12:21 AM 68.0 °F - 60.8 °F 78% 30.23 in 10.0 mi Calm Calm - N/A   Clear
12:39 AM 62.6 °F - 60.8 °F 94% 30.23 in 10.0 mi Calm Calm - N/A   Clear
1:00 AM 62.6 °F - 60.8 °F 94% 30.23 in 10.0 mi Calm Calm - N/A   Clear
1:21 AM 62.6 °F - 59.0 °F 88% 30.24 in 10.0 mi Calm Calm - N/A   Clear
1:39 AM 60.8 °F - 59.0 °F 94% 30.23 in 10.0 mi WNW 3.5 mph - N/A   Clear
2:00 AM 60.8 °F - 59.0 °F 94% 30.23 in 10.0 mi WNW 3.5 mph - N/A   Clear
2:21 AM 60.8 °F - 59.0 °F 94% 30.22 in 10.0 mi NNW 4.6 mph - N/A   Clear
2:39 AM 60.8 °F - 60.8 °F 100% 30.23 in 10.0 mi NW 3.5 mph - N/A   Clear
3:00 AM 60.8 °F - 59.0 °F 94% 30.23 in 10.0 mi NW 3.5 mph - N/A   Clear
3:21 AM 60.8 °F - 59.0 °F 94% 30.23 in 10.0 mi WNW 3.5 mph - N/A   Clear
4:00 AM 60.8 °F - 59.0 °F 94% 30.23 in 10.0 mi Calm Calm - N/A   Clear
4:21 AM 60.8 °F - 59.0 °F 94% 30.23 in 10.0 mi NNW 3.5 mph - N/A   Clear
4:42 AM 60.8 °F - 59.0 °F 94% 30.23 in 10.0 mi Calm Calm - N/A   Clear
5:00 AM 60.8 °F - 59.0 °F 94% 30.23 in 10.0 mi NW 3.5 mph - N/A   Clear
5:21 AM 60.8 °F - 59.0 °F 94% 30.23 in 10.0 mi Calm Calm - N/A   Clear
5:33 AM 59.0 °F - 59.0 °F 100% 30.24 in 10.0 mi WNW 3.5 mph - N/A   Clear
5:50 AM 60.8 °F - 60.8 °F 100% 30.25 in 10.0 mi Calm Calm - N/A   Scattered Clouds
7:45 AM 62.6 °F - 60.8 °F 94% 30.27 in 10.0 mi Calm Calm - N/A   Scattered Clouds
8:45 AM 66.2 °F - 62.6 °F 88% 30.27 in 10.0 mi Calm Calm - N/A   Scattered Clouds
10:55 AM 75.2 °F - 60.8 °F 61% 30.28 in 10.0 mi NE 4.6 mph - N/A   Scattered Clouds
11:45 AM 78.8 °F - 60.8 °F 54% 30.29 in 10.0 mi ENE 5.8 mph - N/A   Scattered Clouds
12:55 PM 77.0 °F - 60.8 °F 57% 30.27 in 10.0 mi ENE 8.1 mph - N/A   Scattered Clouds
1:50 PM 78.8 °F - 62.6 °F 57% 30.26 in 10.0 mi ENE 5.8 mph - N/A   Scattered Clouds
2:28 PM 78.8 °F - 60.8 °F 54% 30.26 in 10.0 mi East 5.8 mph - N/A   Mostly Cloudy
2:55 PM 78.8 °F - 57.2 °F 47% 30.26 in 10.0 mi ESE 8.1 mph - N/A   Mostly Cloudy
3:45 PM 80.6 °F 81.1 °F 59.0 °F 48% 30.25 in 10.0 mi East 8.1 mph - N/A   Scattered Clouds
4:45 PM 80.6 °F 80.8 °F 57.2 °F 45% 30.25 in 10.0 mi East 6.9 mph - N/A   Scattered Clouds
5:45 PM 78.8 °F - 57.2 °F 47% 30.25 in 10.0 mi East 9.2 mph - N/A   Scattered Clouds
6:45 PM 77.0 °F - 59.0 °F 54% 30.24 in 10.0 mi SE 6.9 mph - N/A   Scattered Clouds
7:54 PM 75.2 °F - 59.0 °F 57% 30.25 in 10.0 mi East 4.6 mph - N/A   Scattered Clouds
8:54 PM 73.4 °F - 62.6 °F 69% 30.25 in 10.0 mi East 9.2 mph - N/A   Scattered Clouds
10:24 PM 71.6 °F - 62.6 °F 73% 30.27 in 10.0 mi East 6.9 mph - N/A   Clear
10:42 PM 71.6 °F - 64.4 °F 78% 30.27 in 10.0 mi East 4.6 mph - N/A   Clear
11:03 PM 71.6 °F - 64.4 °F 78% 30.26 in 10.0 mi East 6.9 mph - N/A   Clear
11:24 PM 71.6 °F - 64.4 °F 78% 30.26 in 10.0 mi East 4.6 mph - N/A   Clear
11:42 PM 71.6 °F - 64.4 °F 78% 30.26 in 10.0 mi East 5.8 mph - N/A   Clear